Date,TemperatureHighF,TemperatureAvgF,TemperatureLowF,DewpointHighF,DewpointAvgF,DewpointLowF,HumidityHigh,HumidityAvg,HumidityLow,PressureMaxIn,PressureMinIn,WindSpeedMaxMPH,WindSpeedAvgMPH,GustSpeedMaxMPH,PrecipitationSumIn
2014-1-1,30,21,-1,23,13,-4,91,73,45,30.57,30.25,17,3,22,0.00
2014-1-2,34,17,-2,11,5,-6,91,63,29,30.86,30.72,11,2,13,0.00
2014-1-3,37,14,-4,13,3,-8,91,69,24,30.72,30.19,9,1,16,0.00
2014-1-4,29,13,-14,21,6,-19,88,76,54,30.27,29.79,23,3,31,0.00
2014-1-5,9,-5,-19,0,-12,-24,85,74,57,30.97,30.27,16,2,23,0.00
2014-1-6,19,-3,-20,1,-11,-25,85,70,37,31.15,30.96,9,1,15,0.00
2014-1-7,25,7,-8,12,1,-13,87,75,50,31.07,30.53,8,1,10,0.00
2014-1-8,29,20,10,20,15,6,91,81,61,30.53,30.23,8,1,14,0.00
2014-1-9,27,20,14,19,17,12,92,86,65,30.23,29.89,10,3,20,0.00
2014-1-10,20,15,5,18,11,1,91,83,66,30.38,29.90,16,3,33,0.00
2014-1-11,40,19,6,26,14,2,93,83,53,30.56,30.16,7,1,10,0.09
2014-1-12,28,17,9,22,11,3,92,78,54,30.34,29.93,19,4,32,0.00
2014-1-13,26,12,-3,13,5,-7,90,76,55,30.65,30.34,15,2,20,0.00
2014-1-14,30,12,-3,17,5,-7,89,75,41,30.86,30.65,12,2,21,0.00
2014-1-15,35,9,-5,18,2,-9,90,76,41,30.90,30.69,10,1,16,0.00
2014-1-16,31,9,-7,15,1,-10,90,73,38,30.84,30.61,8,1,17,0.00
2014-1-17,34,10,-8,14,1,-11,90,72,37,30.88,30.66,6,1,15,0.00
2014-1-18,34,11,-2,13,3,-6,88,73,37,30.81,30.68,9,2,14,0.00
2014-1-19,35,10,-6,14,2,-10,87,73,40,30.85,30.63,8,1,15,0.00
2014-1-20,36,13,-5,14,4,-9,89,70,38,30.97,30.67,10,1,15,0.00
2014-1-21,34,8,-10,11,-4,-14,85,65,21,31.04,30.79,9,1,11,0.00
2014-1-22,27,6,-11,3,-6,-16,81,63,28,30.83,30.44,8,1,9,0.00
2014-1-23,29,12,-4,10,3,-7,85,69,43,30.84,30.51,9,1,14,0.00
2014-1-24,29,6,-12,6,-5,-17,85,66,28,31.04,30.84,11,2,12,0.00
2014-1-25,36,12,-5,16,3,-9,87,71,34,31.02,30.57,8,1,11,0.00
2014-1-26,37,14,-2,16,6,-6,90,72,39,30.58,30.26,14,2,17,0.00
2014-1-27,32,17,-2,19,8,-5,90,72,48,30.35,30.08,20,4,26,0.00
2014-1-28,23,9,-7,11,-8,-13,80,51,21,30.60,30.16,13,2,18,0.00
2014-1-29,33,15,-9,24,5,-13,93,70,29,30.70,30.13,8,1,15,0.00
2014-1-30,31,30,26,30,28,24,96,92,85,30.12,29.53,14,4,20,0.00
2014-1-31,30,24,18,29,22,16,95,93,91,29.73,29.53,13,3,20,0.00
2014-2-1,22,12,-1,18,9,-4,92,87,79,30.29,29.73,8,1,14,0.00
2014-2-2,15,-1,-20,10,-6,-24,87,80,68,30.59,30.30,9,1,9,0.00
2014-2-3,23,9,-6,15,5,-10,89,84,69,30.56,30.10,6,1,9,0.00
2014-2-4,20,12,4,13,8,1,90,85,72,30.23,29.94,11,2,17,0.00
2014-2-5,17,4,-5,5,-1,-9,86,78,60,30.43,30.23,11,1,14,0.00
2014-2-6,21,11,-3,13,7,-7,90,82,70,30.43,30.21,10,2,17,0.00
2014-2-7,24,19,15,19,16,12,90,86,78,30.20,30.03,17,3,19,0.00
2014-2-8,28,24,20,25,22,15,94,89,80,30.22,30.09,7,1,16,0.00
2014-2-9,33,30,26,29,28,25,95,92,81,30.17,29.93,13,4,21,0.00
2014-2-10,35,23,4,30,20,2,94,89,75,30.24,29.94,1,0,2,0.02
2014-2-11,25,8,-11,15,3,-15,90,82,59,30.68,30.24,0,0,0,0.00
2014-2-12,29,13,-8,22,8,-12,93,82,62,30.75,30.51,0,0,0,0.00
2014-2-13,36,30,24,28,25,22,93,82,65,30.49,30.02,14,1,23,0.00
2014-2-14,34,31,27,29,25,22,93,79,65,30.14,30.02,11,3,21,0.00
2014-2-15,43,34,19,28,23,17,93,68,40,30.16,30.09,14,2,23,0.12
2014-2-16,39,28,15,28,19,3,92,70,32,30.21,29.97,27,4,35,0.00
2014-2-17,40,22,3,17,6,-2,80,56,18,30.44,30.19,13,2,20,0.02
2014-2-18,42,23,6,16,9,2,87,61,22,30.34,30.22,13,2,19,0.01
2014-2-19,38,24,8,26,15,5,92,71,37,30.21,29.67,18,4,26,0.00
2014-2-20,18,9,-8,13,-1,-12,87,68,43,30.51,29.78,14,3,23,0.00
2014-2-21,30,12,-9,13,4,-13,86,70,39,30.57,30.35,11,2,18,0.00
2014-2-22,32,18,-4,17,7,-7,86,65,40,30.35,30.18,14,3,25,0.00
2014-2-23,38,20,1,15,7,-2,87,63,29,30.39,30.24,10,2,19,0.02
2014-2-24,42,21,0,16,7,-3,88,62,27,30.42,30.29,12,2,19,0.00
2014-2-25,44,25,4,20,11,0,87,62,31,30.39,30.11,13,2,19,0.00
2014-2-26,40,27,16,21,17,12,85,68,38,30.16,29.97,16,3,21,0.00
2014-2-27,38,23,10,29,20,8,94,86,61,30.09,29.77,12,2,19,0.00
2014-2-28,37,28,25,25,23,16,92,81,44,29.98,29.86,12,3,17,0.08
2014-3-1,33,27,20,30,25,18,95,89,73,29.95,29.75,20,3,21,0.00
2014-3-2,38,26,15,26,20,12,93,81,56,30.24,29.93,13,2,17,0.13
2014-3-3,39,23,11,21,16,8,89,74,47,30.31,30.18,9,1,16,0.00
2014-3-4,40,24,4,27,16,1,93,75,36,30.28,30.03,10,2,16,0.01
2014-3-5,36,23,8,24,15,5,93,73,40,30.43,30.15,12,2,20,0.01
2014-3-6,45,24,3,24,11,0,90,65,25,30.52,30.17,10,2,15,0.00
2014-3-7,31,26,17,28,23,16,93,90,82,30.16,29.87,6,1,11,0.00
2014-3-8,34,21,8,20,13,5,91,75,45,30.67,30.14,13,2,17,0.09
2014-3-9,43,20,-2,17,7,-5,88,64,17,30.79,30.54,12,2,18,0.01
2014-3-10,50,27,7,17,7,-5,84,53,11,30.59,29.97,14,2,16,0.00
2014-3-11,37,25,8,22,14,5,89,66,35,30.30,29.80,17,3,21,0.00
2014-3-12,36,16,-3,14,4,-6,88,64,23,30.64,30.31,12,2,15,0.02
2014-3-13,40,22,-1,23,9,-5,85,63,30,30.60,30.23,14,2,19,0.00
2014-3-14,41,24,8,22,13,5,90,68,26,30.28,30.12,12,3,15,0.00
2014-3-15,35,20,6,16,7,2,89,63,26,30.56,30.17,15,2,26,0.00
2014-3-16,40,19,-1,18,8,-5,87,65,38,30.70,30.45,14,3,18,0.00
2014-3-17,43,28,11,23,11,3,85,55,25,30.44,29.55,15,4,28,0.00
2014-3-18,29,17,4,14,7,0,85,68,40,30.29,29.66,11,3,20,0.00
2014-3-19,34,16,-4,13,5,-7,86,66,28,30.57,30.29,11,2,17,0.00
2014-3-20,43,21,-2,17,4,-6,85,56,15,30.58,30.25,12,2,17,0.00
2014-3-21,43,26,7,23,10,3,82,57,21,30.27,30.06,15,2,18,0.00
2014-3-22,35,27,18,26,19,13,85,73,53,30.28,30.02,13,3,20,0.00
2014-3-24,41,33,19,14,8,2,70,38,22,30.38,30.26,15,6,25,0.00
2014-3-25,49,29,10,22,10,3,80,53,16,30.42,29.99,12,2,16,0.00
2014-3-26,42,29,17,28,21,12,92,74,40,29.98,29.51,14,2,21,0.00
2014-3-27,33,27,24,25,22,20,91,84,64,29.95,29.55,17,6,23,0.00
2014-3-28,34,24,12,23,14,7,91,68,34,30.43,29.95,16,3,20,0.01
2014-3-29,44,24,0,24,10,-3,87,62,27,30.59,30.30,17,2,19,0.04
2014-3-30,44,31,18,25,16,7,83,59,28,30.30,29.61,16,4,32,0.00
2014-3-31,35,28,21,19,13,0,84,58,23,30.03,29.80,17,4,24,0.00
2014-4-1,39,31,26,23,18,11,85,62,33,29.96,29.71,18,2,20,0.00
2014-4-2,33,27,23,25,20,8,91,75,37,29.77,29.66,12,3,19,0.05
2014-4-3,32,23,7,22,18,4,92,82,56,30.27,29.71,9,1,16,0.00
2014-4-4,36,18,-3,20,7,-7,86,66,30,30.43,30.22,11,2,15,0.02
2014-4-5,40,26,10,26,15,7,92,69,28,30.24,29.89,12,2,15,0.01
2014-4-6,35,23,7,24,15,5,91,73,39,30.18,30.01,8,1,17,0.00
2014-4-7,41,27,12,18,14,8,90,62,27,30.41,30.18,13,2,18,0.01
2014-4-8,49,32,14,25,19,12,90,64,33,30.48,30.33,15,3,18,0.00
2014-4-9,53,36,17,25,19,13,89,58,21,30.38,30.06,16,3,19,0.00
2014-4-10,53,37,20,23,18,11,85,52,19,30.10,29.96,20,3,28,0.00
2014-4-11,56,38,19,29,19,13,86,54,19,30.14,29.91,13,3,19,0.00
2014-4-12,52,36,21,32,23,16,94,64,28,29.95,29.68,18,3,31,0.00
2014-4-13,40,30,20,33,28,17,95,89,75,29.89,29.51,12,1,26,0.10
2014-4-14,34,23,13,17,11,1,88,62,35,30.40,29.90,13,3,23,0.08
2014-4-15,43,27,7,18,10,4,85,55,23,30.42,30.01,15,3,19,0.00
2014-4-16,44,34,21,23,17,13,80,52,30,30.01,29.82,20,3,22,0.00
2014-4-17,50,33,18,25,19,15,88,61,28,30.16,29.99,13,3,20,0.00
2014-4-18,56,39,22,30,23,19,86,59,24,30.21,29.93,10,2,20,0.00
2014-4-19,50,39,29,36,30,26,92,73,45,30.02,29.90,12,2,14,0.00
2014-4-20,55,40,28,35,29,24,95,70,32,30.14,29.98,10,2,20,0.00
2014-4-21,56,40,25,31,25,15,93,63,20,30.24,30.08,13,2,20,0.00
2014-4-22,57,40,26,37,28,23,87,66,31,30.14,29.70,13,2,23,0.01
2014-4-23,48,38,28,31,22,13,85,56,29,29.83,29.55,14,4,22,0.00
2014-4-24,51,33,16,20,13,6,85,50,17,30.11,29.83,14,3,19,0.00
2014-4-25,59,40,21,24,16,6,81,46,13,30.08,29.68,17,3,23,0.00
2014-4-26,50,38,27,29,23,17,93,61,28,29.70,29.30,19,4,27,0.00
2014-4-27,37,30,25,26,22,16,91,72,45,29.77,29.33,16,6,27,0.00
2014-4-28,32,24,15,23,18,11,90,78,47,30.19,29.76,12,3,25,0.00
2014-4-29,36,24,10,15,10,7,89,60,31,30.43,30.19,15,2,23,0.04
2014-4-30,40,28,15,17,13,10,85,57,32,30.43,30.26,12,2,14,0.00
2014-5-1,45,31,14,18,12,-1,84,52,20,30.39,30.22,14,2,24,0.00
2014-5-2,57,38,19,26,20,15,86,54,23,30.31,30.07,11,2,18,0.00
2014-5-3,63,44,25,29,20,4,89,51,10,30.12,29.93,15,3,21,0.00
2014-5-4,62,45,28,27,18,2,83,44,9,30.01,29.83,19,5,28,0.00
2014-5-5,62,44,27,27,18,6,77,44,13,29.96,29.72,16,3,21,0.00
2014-5-6,58,43,28,25,16,3,78,41,11,29.78,29.49,15,3,22,0.00
2014-5-7,50,38,26,23,15,1,76,45,15,29.71,29.50,22,5,30,0.00
2014-5-8,41,30,23,30,24,17,93,78,51,30.08,29.72,13,2,20,0.03
2014-5-9,45,34,21,32,26,19,94,76,44,30.09,29.91,16,3,29,0.02
2014-5-10,50,37,26,36,30,24,95,77,39,29.98,29.66,7,1,18,0.03
2014-5-11,42,35,28,38,32,23,94,87,62,29.79,29.45,6,0,14,0.25
2014-5-12,35,29,23,24,20,14,90,70,50,30.27,29.79,6,1,11,0.03
2014-5-13,38,28,17,22,14,9,86,58,32,30.59,30.28,10,2,19,0.02
2014-5-14,45,30,14,21,15,10,86,58,31,30.63,30.42,12,2,25,0.02
2014-5-15,51,36,22,29,23,18,87,61,32,30.46,30.21,13,2,22,0.00
2014-5-16,57,42,25,34,27,20,92,62,25,30.24,30.00,19,3,23,0.00
2014-5-17,63,46,28,35,25,13,93,53,14,30.01,29.82,17,3,24,0.00
2014-5-18,65,47,29,33,22,11,83,46,14,29.89,29.68,12,3,21,0.00
2014-5-19,65,47,28,27,18,8,77,41,11,29.82,29.68,13,4,23,0.00
2014-5-20,65,46,27,30,18,4,77,42,9,29.89,29.76,16,3,23,0.00
2014-5-21,63,47,28,31,23,17,77,44,18,29.99,29.84,14,2,24,0.00
2014-5-22,62,46,29,39,30,26,87,60,28,30.02,29.88,19,2,20,0.01
2014-5-23,64,45,34,39,34,22,95,70,20,30.01,29.80,7,2,18,0.04
2014-5-24,59,43,30,38,33,21,96,74,23,29.96,29.76,8,1,18,0.32
2014-5-25,53,39,33,40,36,32,96,88,52,30.05,29.83,9,0,12,0.57
2014-5-26,61,44,29,39,33,28,97,70,29,30.13,29.98,12,2,17,0.07
2014-5-27,70,50,30,41,32,23,96,59,19,30.14,29.98,11,2,17,0.00
2014-5-28,71,52,32,44,32,22,89,54,16,30.08,29.86,9,1,13,0.00
2014-5-29,67,52,36,44,37,32,88,62,30,29.96,29.81,13,2,21,0.00
2014-5-30,58,48,39,49,43,37,93,82,59,29.98,29.84,8,1,11,0.05
2014-5-31,68,51,34,44,35,29,96,60,24,30.04,29.79,14,2,32,0.00
2014-6-1,66,51,35,38,24,9,88,45,11,29.91,29.74,20,4,26,0.00
2014-6-2,71,51,29,35,22,10,82,41,11,29.99,29.85,12,3,20,0.00
2014-6-3,70,53,36,34,24,9,72,39,10,29.90,29.70,21,4,26,0.00
2014-6-4,71,52,29,25,18,7,72,34,10,29.89,29.70,18,4,22,0.00
2014-6-5,70,52,29,30,18,0,72,35,6,29.86,29.72,16,3,22,0.00
2014-6-6,70,52,34,37,25,8,87,45,10,29.81,29.66,19,3,22,0.00
2014-6-7,68,51,34,34,26,18,81,45,16,29.83,29.70,14,2,27,0.00
2014-6-8,61,44,34,37,32,26,95,66,28,29.94,29.65,24,4,39,0.16
2014-6-9,64,45,30,35,28,16,97,61,16,30.04,29.94,13,3,17,0.00
2014-6-10,68,49,28,33,28,25,90,53,21,30.04,29.84,20,3,24,0.00
2014-6-11,67,48,33,43,34,28,86,62,25,29.94,29.72,12,2,31,0.03
2014-6-12,69,50,31,37,31,23,93,55,19,29.98,29.86,12,3,21,0.00
2014-6-13,70,53,34,37,28,22,86,46,17,29.91,29.60,18,3,24,0.00
2014-6-14,64,48,29,34,23,13,88,46,14,29.80,29.46,20,4,27,0.01
2014-6-15,66,46,25,26,20,12,88,45,13,29.94,29.78,15,3,23,0.00
2014-6-16,66,49,29,26,19,13,71,37,15,29.83,29.67,13,3,23,0.00
2014-6-17,67,51,29,28,23,19,73,39,17,29.82,29.65,21,4,23,0.00
2014-6-18,63,46,32,37,29,26,83,55,26,29.89,29.65,21,3,29,0.00
2014-6-19,66,47,28,34,24,6,91,51,11,30.11,29.90,15,3,20,0.00
2014-6-20,72,52,28,28,22,13,73,38,12,30.13,29.88,15,3,19,0.00
2014-6-21,70,53,37,36,28,22,72,44,18,29.93,29.75,8,2,18,0.00
2014-6-22,68,49,33,45,32,25,84,56,21,29.92,29.80,15,2,23,0.04
2014-6-23,70,51,32,41,32,26,91,56,20,29.98,29.88,13,2,19,0.00
2014-6-24,72,54,34,39,31,22,87,49,16,29.99,29.83,12,2,26,0.00
2014-6-25,74,57,39,40,29,19,81,42,14,29.87,29.67,11,2,18,0.00
2014-6-26,73,54,34,39,26,17,70,38,13,29.77,29.55,15,3,23,0.00
2014-6-27,63,51,40,37,30,24,72,47,28,29.69,29.55,18,4,26,0.00
2014-6-28,67,50,32,37,29,19,91,51,16,29.93,29.69,16,3,22,0.00
2014-6-29,76,56,32,34,29,26,82,43,17,29.99,29.79,17,4,25,0.00
2014-6-30,76,58,37,41,28,19,76,39,12,29.85,29.72,16,4,28,0.00
2014-7-1,76,58,37,44,32,15,89,46,10,29.86,29.72,13,2,19,0.00
2014-7-2,75,58,39,45,37,27,91,55,17,29.89,29.75,13,3,21,0.00
2014-7-3,78,57,38,42,37,28,85,52,17,29.98,29.80,9,2,19,0.00
2014-7-4,74,53,40,51,43,37,96,73,30,30.07,29.85,11,1,16,0.24
2014-7-5,68,51,38,56,46,37,97,84,43,30.14,30.02,10,1,13,0.14
2014-7-6,76,57,37,47,40,31,96,62,21,30.14,29.91,7,1,12,0.01
2014-7-7,74,55,40,55,43,36,88,68,30,29.97,29.79,8,1,17,0.05
2014-7-8,77,55,38,50,42,32,95,69,20,30.01,29.84,14,2,18,0.13
2014-7-9,71,56,40,51,44,39,97,68,35,30.00,29.83,9,1,14,0.01
2014-7-10,77,58,40,47,43,37,93,62,24,29.92,29.73,12,2,18,0.00
2014-7-11,75,58,43,50,45,40,91,65,33,29.91,29.78,12,2,17,0.00
2014-7-12,74,56,48,53,49,45,96,80,41,30.02,29.84,8,1,16,0.66
2014-7-13,73,55,43,57,49,42,98,83,40,30.09,29.92,9,1,17,0.67
2014-7-14,74,58,44,54,48,42,98,73,34,30.06,29.87,8,2,15,0.01
2014-7-15,72,56,44,50,46,36,95,74,31,29.94,29.72,12,2,21,0.04
2014-7-16,70,55,44,50,44,36,96,70,29,29.89,29.68,13,3,19,0.10
2014-7-17,70,55,41,49,44,38,97,71,35,29.85,29.70,12,1,12,0.03
2014-7-18,73,56,38,47,41,35,95,63,25,29.92,29.79,15,2,22,0.00
2014-7-19,74,57,41,48,41,36,87,61,28,29.92,29.78,9,1,18,0.00
2014-7-20,76,57,40,48,40,34,93,59,22,29.95,29.83,16,2,26,0.00
2014-7-21,75,58,42,47,40,35,91,58,25,30.02,29.90,9,2,18,0.00
2014-7-22,83,62,37,45,34,21,88,46,11,30.12,29.95,8,2,16,0.00
2014-7-23,79,63,46,47,40,35,81,49,21,30.05,29.80,8,1,13,0.00
2014-7-24,77,61,49,48,45,42,84,59,29,29.94,29.74,15,2,22,0.00
2014-7-25,75,58,44,50,44,40,91,65,29,29.92,29.79,14,2,19,0.00
2014-7-26,76,58,41,55,45,39,94,67,28,30.00,29.87,13,2,18,0.01
2014-7-27,74,56,42,52,45,39,95,71,30,30.07,29.93,14,1,18,0.02
2014-7-28,69,56,50,52,48,44,95,77,43,30.08,29.94,9,2,16,0.07
2014-7-29,66,54,49,54,50,46,96,84,53,30.04,29.87,7,1,15,0.18
2014-7-30,69,57,44,52,47,43,97,73,40,29.97,29.83,11,2,15,0.01
2014-7-31,69,57,48,52,47,41,95,73,40,29.96,29.78,9,1,15,0.27
2014-8-1,62,51,42,51,46,40,97,86,59,30.07,29.92,9,1,11,0.16
2014-8-2,70,52,36,53,43,35,96,75,36,30.17,29.97,8,1,13,0.05
2014-8-3,70,54,41,54,47,40,97,79,40,30.09,29.89,7,1,11,0.14
2014-8-4,65,53,45,53,47,43,96,83,50,29.98,29.86,5,1,10,0.79
2014-8-5,68,52,40,52,44,39,98,77,38,30.07,29.93,11,2,18,0.03
2014-8-6,72,55,38,48,39,27,96,63,19,30.05,29.87,13,2,17,0.00
2014-8-7,71,55,40,46,38,29,91,60,21,29.93,29.77,18,2,20,0.00
2014-8-8,70,54,37,46,34,27,93,56,20,29.95,29.87,11,2,21,0.00
2014-8-9,70,52,34,42,35,31,90,56,25,30.06,29.93,9,2,21,0.00
2014-8-10,72,53,36,46,38,31,91,63,22,30.14,29.96,9,2,15,0.00
2014-8-11,72,54,37,46,40,35,93,64,28,30.17,30.03,8,1,13,0.00
2014-8-12,74,54,39,50,43,37,93,70,30,30.12,29.93,10,1,13,0.08
2014-8-13,72,57,41,50,44,39,96,68,34,30.04,29.83,7,1,11,0.00
2014-8-14,65,54,44,54,47,43,93,78,53,29.94,29.77,9,1,15,0.10
2014-8-15,73,54,39,49,43,38,96,71,31,30.04,29.87,9,1,15,0.01
2014-8-16,71,51,37,51,42,35,95,74,30,30.07,29.95,11,1,11,0.11
2014-8-17,75,55,37,48,37,31,96,60,21,30.13,29.92,15,2,19,0.01
2014-8-18,74,57,37,43,36,32,89,53,22,29.99,29.75,11,2,15,0.00
2014-8-19,67,53,43,54,44,38,95,74,37,29.83,29.61,13,1,23,0.19
2014-8-20,67,54,45,51,47,39,97,79,37,29.83,29.70,8,1,20,0.08
2014-8-21,68,52,36,44,39,33,97,67,30,29.99,29.84,12,2,16,0.01
2014-8-22,57,50,43,49,45,40,92,82,65,29.95,29.78,4,0,9,0.09
2014-8-23,60,49,41,46,43,40,96,80,51,29.91,29.77,21,2,25,0.02
2014-8-24,66,52,42,45,41,35,97,69,35,29.94,29.82,12,2,23,0.04
2014-8-25,68,50,37,49,40,35,93,72,33,29.99,29.86,19,1,25,0.04
2014-8-26,65,51,38,48,42,36,96,75,36,30.05,29.94,9,1,18,0.42
2014-8-27,60,50,42,48,42,37,97,77,44,30.00,29.89,10,2,19,0.24
2014-8-28,61,47,37,46,40,34,93,78,40,30.07,29.96,14,1,20,0.03
2014-8-29,63,45,32,47,38,31,96,80,40,30.15,29.97,11,2,18,0.14
2014-8-30,65,48,34,50,40,33,97,79,36,30.12,29.89,9,2,16,0.03
2014-8-31,66,50,38,46,38,33,96,71,30,29.92,29.78,18,2,28,0.01
2014-9-1,68,50,32,40,34,29,94,62,25,29.99,29.85,13,1,20,0.01
2014-9-2,71,52,32,40,34,29,92,59,21,30.06,29.83,15,2,21,0.00
2014-9-3,74,54,35,40,34,28,89,55,19,29.89,29.67,13,2,19,0.00
2014-9-4,67,50,34,46,36,30,94,64,28,29.96,29.78,7,1,16,0.12
2014-9-5,66,52,41,50,44,35,97,77,34,30.04,29.88,5,0,10,0.07
2014-9-6,69,51,39,46,38,29,94,67,23,30.11,29.96,14,2,17,0.00
2014-9-7,66,51,36,45,39,35,95,67,33,30.07,29.89,11,2,18,0.00
2014-9-8,56,49,43,49,45,39,96,87,71,29.97,29.84,4,0,7,0.28
2014-9-9,52,49,42,50,47,41,97,94,82,29.87,29.73,11,1,18,1.23
2014-9-10,60,48,36,44,39,31,97,76,34,30.02,29.81,12,2,18,0.02
2014-9-11,63,45,30,40,33,27,96,68,26,30.11,29.95,11,2,20,0.00
2014-9-12,62,44,30,36,29,17,95,62,18,30.14,30.01,14,2,20,0.00
2014-9-13,65,45,28,34,29,25,91,60,22,30.20,30.03,18,2,18,0.00
2014-9-14,67,48,30,38,32,27,91,60,26,30.18,29.98,13,2,21,0.00
2014-9-15,70,50,32,40,34,24,93,62,18,30.17,30.00,10,1,16,0.00
2014-9-16,70,49,36,43,38,34,92,69,29,30.14,29.92,7,1,12,0.00
2014-9-17,71,51,36,43,37,33,92,64,28,30.04,29.85,11,1,20,0.00
2014-9-18,73,51,34,46,37,33,92,64,25,29.95,29.74,2,0,5,0.00
2014-9-19,72,52,34,42,36,31,91,62,25,29.94,29.79,13,2,18,0.00
2014-9-20,75,52,37,49,40,32,94,72,22,30.06,29.88,10,2,13,0.05
2014-9-21,63,51,45,54,48,44,96,89,55,30.11,29.96,3,0,6,0.80
2014-9-22,59,50,41,51,47,40,97,90,59,30.03,29.89,6,1,13,0.88
2014-9-23,61,47,37,48,41,37,97,83,46,30.15,30.00,11,1,15,0.02
2014-9-24,70,50,33,44,38,32,97,70,27,30.23,30.05,9,1,12,0.01
2014-9-25,70,53,37,47,40,34,94,67,27,30.14,29.91,8,1,17,0.00
2014-9-26,70,52,36,45,40,34,93,67,32,29.98,29.78,7,1,10,0.00
2014-9-27,72,52,37,48,40,36,94,69,29,29.89,29.63,7,1,10,0.00
2014-9-28,57,48,41,49,43,39,93,82,61,29.84,29.71,8,1,15,0.17
2014-9-29,53,40,34,45,38,33,97,92,61,29.91,29.74,7,1,17,0.69
2014-9-30,44,37,32,36,34,31,97,88,64,29.93,29.88,6,1,10,0.03
2014-10-1,46,35,29,37,32,28,97,89,66,30.03,29.86,11,2,21,0.05
2014-10-2,47,34,25,30,26,19,95,75,34,30.32,30.02,13,2,18,0.01
2014-10-3,55,37,24,29,24,18,95,66,24,30.40,30.29,13,3,19,0.00
2014-10-4,60,38,23,33,26,21,92,68,25,30.36,30.08,13,2,21,0.00
2014-10-5,60,39,24,34,26,13,93,66,16,30.17,30.02,10,1,16,0.00
2014-10-6,61,40,25,34,28,23,94,68,24,30.16,29.99,13,2,19,0.00
2014-10-7,60,40,25,35,29,23,92,68,31,30.20,30.02,10,2,14,0.00
2014-10-8,64,44,30,39,30,26,90,64,25,30.13,29.88,8,1,14,0.00
2014-10-9,46,41,37,42,37,31,95,87,77,29.97,29.80,2,0,3,0.30
2014-10-10,50,42,36,39,36,34,96,82,56,30.07,29.96,4,0,7,0.11
2014-10-11,52,40,31,41,34,29,96,83,45,30.13,29.92,10,1,15,0.01
2014-10-12,40,33,29,34,30,25,95,89,62,30.09,29.68,10,1,18,0.17
2014-10-13,46,32,23,28,23,20,94,74,37,30.35,30.09,9,1,14,0.02
2014-10-14,60,35,20,31,24,18,92,70,28,30.46,30.26,10,2,14,0.00
2014-10-15,64,40,25,35,24,16,89,61,16,30.33,30.03,9,2,22,0.00
2014-10-16,61,41,27,33,23,13,91,57,16,30.12,29.96,8,2,20,0.00
2014-10-17,59,39,25,31,24,20,89,62,23,30.17,30.02,7,1,13,0.00
2014-10-18,59,41,29,33,28,24,87,63,27,30.18,29.99,13,1,14,0.00
2014-10-19,60,44,34,36,33,27,88,68,29,30.07,29.92,9,1,14,0.00
2014-10-20,56,40,29,41,33,27,94,78,41,30.14,30.01,9,1,12,0.02
2014-10-21,58,42,30,40,35,29,95,78,42,30.08,29.89,6,0,11,0.07
2014-10-22,47,38,32,41,36,31,97,92,71,30.19,29.95,6,1,20,0.15
2014-10-23,55,37,27,36,31,26,96,80,44,30.33,30.19,10,1,15,0.01
2014-10-24,62,39,26,32,26,19,93,66,20,30.42,30.25,8,2,14,0.01
2014-10-25,63,40,25,29,22,12,84,56,14,30.38,30.11,9,2,14,0.00
2014-10-26,58,41,29,36,25,15,91,60,19,30.14,29.79,15,3,27,0.00
2014-10-27,46,38,23,33,23,14,79,58,31,30.03,29.71,20,5,28,0.00
2014-10-28,50,31,18,17,12,4,84,53,16,30.41,30.04,12,2,21,0.00
2014-10-29,52,32,17,17,13,9,77,51,21,30.45,30.30,12,2,21,0.00
2014-10-30,57,35,21,23,19,15,84,57,24,30.47,30.29,17,2,17,0.00
2014-10-31,57,37,24,23,20,15,79,56,20,30.40,30.11,7,2,18,0.00
2014-11-1,56,40,27,35,27,20,86,64,29,30.17,29.84,12,2,25,0.00
2014-11-2,39,35,31,36,32,28,96,89,77,29.88,29.74,3,0,4,0.13
2014-11-3,36,28,20,30,23,18,96,81,52,30.29,29.79,10,2,15,0.00
2014-11-4,41,24,12,23,17,10,91,77,38,30.56,30.30,9,1,11,0.08
2014-11-5,17,17,16,14,14,14,90,90,89,30.56,30.54,1,0,3,0.00
2014-11-6,55,39,25,25,23,20,82,56,26,30.59,30.40,10,2,13,0.00
2014-11-7,54,33,19,24,20,16,88,64,24,30.45,30.19,14,2,21,0.00
2014-11-8,51,32,20,23,18,13,91,63,23,30.49,30.30,11,2,20,0.00
2014-11-9,49,30,18,18,15,12,81,58,24,30.35,29.90,13,2,18,0.00
2014-11-10,48,31,20,28,18,12,87,61,28,29.90,29.56,21,4,31,0.00
2014-11-11,42,30,14,21,12,5,76,51,26,29.94,29.85,19,6,32,0.00
2014-11-12,39,33,21,25,21,15,81,62,49,29.93,29.68,17,6,25,0.00
2014-11-13,21,20,18,18,15,13,88,80,75,30.11,29.94,3,0,6,0.00
2014-11-14,32,30,28,27,26,24,93,85,74,30.07,29.85,9,3,16,0.00
2014-11-15,28,25,18,26,22,15,93,88,79,29.90,29.83,15,4,20,0.00
2014-11-16,18,8,-9,14,4,-13,90,81,70,30.67,29.88,8,1,15,0.00
2014-11-17,21,1,-16,9,-5,-20,85,76,58,30.95,30.67,6,1,13,0.00
2014-11-18,29,6,-10,13,0,-14,87,76,49,30.99,30.77,10,1,14,0.00
2014-11-19,33,13,-2,15,5,-6,89,74,39,30.85,30.52,9,2,12,0.01
2014-11-20,30,16,3,17,10,0,88,76,48,30.59,30.38,5,1,8,0.00
2014-11-21,36,19,6,19,12,3,89,77,47,30.42,30.26,10,1,15,0.00
2014-11-22,36,20,3,26,15,-1,93,80,51,30.45,29.94,8,1,13,0.00
2014-11-23,28,18,-4,25,12,-8,92,80,50,30.26,29.82,10,2,19,0.00
2014-11-24,19,6,-9,13,2,-13,87,83,67,30.85,30.26,5,1,16,0.00
2014-11-25,20,10,-9,18,6,-13,91,85,76,30.89,30.77,10,1,15,0.00
2014-11-26,38,27,13,27,22,11,93,83,62,30.77,30.45,12,3,20,0.01
2014-11-27,41,21,6,25,15,3,91,80,42,30.78,30.60,6,1,13,0.10
2014-11-28,48,24,10,21,14,7,91,69,21,30.61,30.23,12,2,14,0.06
2014-11-29,44,26,11,14,9,4,85,55,19,30.23,29.98,13,2,20,0.00
2014-11-30,42,25,12,15,11,7,81,58,25,30.30,30.07,7,2,15,0.00
2014-12-1,38,28,14,25,20,10,93,76,51,30.38,30.26,9,2,15,0.03
2014-12-2,37,20,7,19,13,4,89,75,49,30.46,30.32,5,1,8,0.00
2014-12-3,38,27,17,31,23,11,92,84,71,30.41,30.19,4,1,9,0.02
2014-12-4,38,30,26,31,26,24,93,88,74,30.26,30.02,4,0,5,0.01
2014-12-5,38,27,18,28,22,15,94,82,62,30.51,30.12,12,2,15,0.01
2014-12-6,40,27,18,25,20,15,90,77,51,30.57,30.42,5,1,8,0.01
2014-12-7,39,26,14,26,20,11,90,79,58,30.57,30.41,9,1,14,0.00
2014-12-8,39,21,7,22,13,4,90,72,38,30.71,30.56,7,1,10,0.00
2014-12-9,38,18,4,16,7,0,81,63,35,30.70,30.50,7,2,10,0.00
2014-12-10,38,18,2,16,7,-2,83,65,36,30.64,30.46,6,1,9,0.00
2014-12-11,42,20,5,22,10,1,87,71,35,30.59,30.42,5,1,8,0.00
2014-12-12,40,24,11,24,16,8,90,74,47,30.55,30.31,5,1,8,0.00
2014-12-13,44,29,20,26,21,15,93,72,42,30.30,29.79,7,1,17,0.00
2014-12-14,28,23,17,26,21,15,95,90,83,30.06,29.71,6,1,12,0.00
2014-12-15,25,14,0,17,10,-3,92,84,67,30.58,30.07,7,1,8,0.00
2014-12-16,37,16,-1,29,12,-4,91,85,69,30.63,30.37,4,0,6,0.06
2014-12-17,29,19,8,23,16,6,91,87,72,30.37,30.10,5,1,11,0.00